Location: L�tisburg
(47.3947°N, 9.0820°E)
Time: 08:46:50
(UTC+00:00)

CZ-4B R/B - Pass Details

Date: 03 March 2021
Orbit: 388 x 455 km, 97.6° (Epoch: 13 April)

Event Time Altitude Azimuth Distance (km) Brightness Sun altitude
Rises 18:40:07 0° 356° (N) 2,294 5.1 -15.7°
Reaches altitude 10° 18:42:36 10° 333° (NNW) 1,435 4.4 -16.1°
Maximum altitude 18:44:31 16° 294° (WNW) 1,149 4.5 -16.4°
Drops below altitude 10° 18:46:25 10° 256° (WSW) 1,437 5.0 -16.8°
Sets 18:48:56 0° 233° (SW) 2,298 5.7 -17.2°
